Temperature
18 17 17 17 17 17 17 16 16 16 16 16 16 15 15 15 15 15 15 15 15 15 15 15 15 15 15 15 15 15 15 15 14 14 15 15 15 15 14 14 14 14 14
18 17 17 17 17 17 17 16 16 16 16 16 16 15 15 15 15 15 15 15 15 15 15 15 15 15 15 15 14 14 14 14 14 14 14 14 14 14 14 14 14 14 14
17 17 17 17 17 17 16 16 16 16 16 15 15 15 15 15 15 15 15 15 14 14 14 15 14 14 14 14 14 14 14 14 14 14 14 14 14 14 14 14 14 14 14
17 17 17 17 17 16 16 16 16 16 16 15 15 15 15 15 15 15 15 14 14 14 14 14 14 14 14 14 14 14 14 14 14 14 14 14 14 14 14 14 14 14 14
17 17 17 17 16 16 16 16 16 16 15 15 15 15 14 14 14 14 14 14 14 14 14 14 14 14 14 14 14 14 14 14 14 14 14 14 14 13 13 13 13 13 13
17 17 17 16 16 16 16 15 15 15 15 15 15 14 14 14 14 14 14 14 14 14 14 14 14 14 14 14 14 14 14 13 13 13 13 13 13 13 13 13 13 13 13
17 16 16 16 16 15 15 15 15 15 15 14 14 14 14 14 14 14 14 13 14 14 14 14 14 14 14 14 14 14 13 13 13 13 13 13 13 13 13 13 13 13 13
16 16 16 16 15 15 15 15 15 14 14 14 14 14 14 14 14 14 14 13 13 13 13 14 14 13 13 13 13 13 13 13 13 13 13 13 13 13 13 13 13 12 12
16 16 16 15 15 15 15 15 15 14 14 14 14 14 14 13 13 13 13 13 13 13 13 13 13 13 13 13 13 13 13 13 13 13 13 13 12 12 12 12 12 12 12
16 16 15 15 15 15 15 14 14 14 14 13 13 13 13 13 13 13 13 13 13 13 13 13 13 13 13 13 13 13 13 13 12 12 12 12 12 12 12 12 12 12 12
16 15 15 15 15 14 14 14 14 14 14 13 13 13 13 13 13 13 13 13 13 13 13 13 13 13 13 13 13 13 12 12 12 12 12 12 12 12 12 12 12 12 12
15 15 15 14 14 14 14 14 14 13 13 13 13 13 13 13 13 13 13 13 13 13 13 13 13 13 13 12 12 12 12 12 12 12 12 12 12 12 12 12 12 12 12
15 14 14 14 14 14 14 13 13 13 13 13 13 13 13 13 13 13 13 13 13 13 12 12 12 12 12 12 12 12 12 12 12 12 12 12 12 12 12 12 12 12 11
15 14 14 14 14 13 13 13 13 13 13 13 13 13 13 13 13 13 13 12 12 12 12 12 12 12 12 12 12 12 12 12 12 12 12 12 12 12 11 11 11 11 11
14 14 14 14 13 13 13 13 13 13 12 12 13 13 12 13 13 12 12 12 12 12 12 12 12 12 12 12 12 12 12 12 12 12 11 11 11 11 11 11 11 11 11
14 14 13 13 13 13 13 13 13 13 12 12 12 12 12 12 12 12 12 12 12 12 12 11 11 11 11 11 11 11 11 11 11 11 11 11 11 11 11 11 11 11 11
14 14 13 13 13 13 13 13 12 13 12 12 12 12 12 12 12 12 12 12 12 11 11 11 11 11 11 11 11 11 11 11 11 11 11 11 11 11 11 11 11 11 11
13 13 13 13 13 13 13 12 12 12 12 12 12 12 12 12 12 12 12 11 11 11 11 11 11 11 11 11 11 11 11 11 11 11 11 11 11 11 11 11 10 10 10
13 13 13 13 13 12 12 12 12 12 12 12 12 12 12 11 11 11 11 11 11 11 11 11 11 11 11 11 11 11 11 11 11 11 11 11 10 10 10 10 10 10 10
12 12 12 12 12 12 12 12 12 12 12 12 12 11 11 11 11 11 11 11 11 11 11 11 11 11 11 11 11 11 10 10 10 10 10 10 10 10 10 10 10 10 10
12 12 12 12 12 12 12 12 11 11 11 11 11 11 11 11 11 11 11 11 11 11 11 11 11 11 11 11 11 10 10 10 10 10 10 10 10 10 10 10 10 10 10
12 12 12 11 11 11 11 11 11 11 11 11 11 11 11 11 11 11 11 11 11 11 11 11 11 11 10 10 10 10 10 10 10 10 10 10 10 10 10 9 9 9 9
12 12 11 11 11 11 11 11 11 11 11 11 11 11 11 11 11 11 11 11 11 11 11 10 10 10 10 10 10 10 10 10 10 10 10 10 9 9 9 9 9 9 9
11 11 11 11 11 11 11 11 11 11 11 11 11 11 11 10 10 10 11 11 10 10 10 10 10 10 10 10 10 10 10 10 10 10 9 9 9 9 9 9 9 9 9
11 11 11 11 11 11 11 11 11 11 11 11 11 10 10 10 10 10 10 10 10 10 10 10 10 10 10 10 10 10 9 9 9 9 9 9 9 9 9 9 9 9 9
11 11 11 11 11 11 11 11 11 11 11 10 10 10 10 10 10 10 10 10 10 10 10 10 10 10 10 10 9 9 9 9 9 9 9 9 9 9 9 9 9 8 8
Wind_Speed
4 4 4 3 3 3 3 3 3 2 2 2 2 2 2 2 2 2 2 2 3 3 2 3 3 2 2 1 1 1 2 2 2 2 1 2 1 1 1 1 1 1 2
4 4 3 3 3 3 3 3 2 2 2 2 2 2 2 2 2 3 3 3 3 3 3 3 3 2 2 2 2 2 2 3 3 3 2 1 2 2 1 1 1 1 2
3 3 3 3 3 4 4 3 2 2 2 2 2 2 3 2 2 3 3 3 4 4 4 4 4 3 3 3 3 3 3 3 2 3 2 2 2 1 1 1 1 1 2
3 4 4 4 4 4 4 3 3 3 3 2 2 3 3 3 2 2 3 3 3 4 4 4 5 5 6 5 4 4 4 3 3 3 2 2 2 1 1 2 1 1 2
4 4 5 4 3 3 3 3 3 3 3 3 3 3 2 2 3 3 3 3 3 4 4 5 5 6 7 6 5 5 5 4 3 3 3 2 2 1 2 2 2 2 2
5 5 4 3 3 3 3 3 3 3 3 3 3 3 3 4 4 4 3 3 4 4 4 5 5 6 6 7 8 7 8 6 6 5 4 4 4 3 3 2 2 1 2
4 4 4 3 3 3 3 2 3 4 3 3 4 4 4 5 5 5 5 3 4 5 5 5 4 5 5 5 6 6 8 9 9 7 6 6 5 5 4 4 3 2 3
4 4 3 3 3 3 3 3 3 3 3 4 5 5 4 5 5 5 5 4 4 5 6 6 6 5 5 6 5 5 6 7 8 7 7 7 6 5 6 5 4 2 1
4 4 4 4 4 4 4 4 3 3 4 4 4 4 4 5 5 6 4 3 4 6 6 5 6 6 7 7 5 5 5 5 5 7 7 6 6 6 5 3 3 3 2
5 5 4 4 4 4 4 4 3 3 4 4 4 4 5 5 7 7 5 3 4 5 5 5 6 6 6 6 6 6 6 5 4 3 4 4 5 5 7 6 6 5 2
4 3 3 4 4 4 4 3 3 3 3 4 4 4 4 6 7 8 7 4 5 4 4 4 4 5 6 7 6 6 7 6 4 4 3 3 3 3 4 5 5 6 4
4 3 3 4 4 3 3 3 2 2 3 3 3 4 4 4 6 6 7 7 6 4 5 4 4 5 6 6 5 6 6 5 3 3 3 4 4 4 4 4 5 6 5
3 3 3 3 3 3 3 3 2 2 3 3 3 4 4 3 4 5 5 5 5 4 4 5 4 4 4 4 5 5 5 4 4 4 5 5 4 4 3 2 2 2 2
4 4 3 3 2 2 2 3 3 4 4 4 4 4 4 4 3 2 3 3 3 3 2 2 2 2 1 2 2 3 3 4 4 5 5 4 2 2 3 2 2 2 2
4 3 3 3 3 3 3 3 5 5 5 5 5 5 4 5 5 5 3 3 3 3 1 0 1 1 1 1 1 2 2 3 4 3 3 3 3 2 2 2 2 3 3
4 4 3 3 3 3 3 3 4 6 7 8 8 6 5 7 7 6 5 4 4 3 2 1 2 2 2 2 2 2 2 3 3 3 3 3 3 3 2 2 2 3 3
5 4 3 3 3 3 3 3 3 3 3 4 6 6 6 6 6 5 4 3 3 4 2 3 3 3 3 3 3 3 3 3 3 3 3 3 3 3 3 3 3 3 3
4 5 4 4 4 4 4 4 4 4 3 3 4 5 5 5 5 4 3 2 1 2 3 4 4 4 4 4 4 3 3 3 2 3 3 3 3 4 4 4 4 4 3
3 3 3 3 3 3 3 3 3 4 4 4 3 3 3 3 3 3 4 3 3 4 4 4 4 4 4 4 4 3 3 3 3 3 3 3 3 3 4 4 4 4 4
2 4 3 3 3 3 3 3 3 4 3 3 3 3 2 1 2 2 2 3 4 4 4 5 4 4 4 4 3 3 3 4 4 4 3 3 3 3 4 4 4 4 4
2 3 3 3 2 3 3 3 3 3 3 4 4 4 4 3 4 4 3 4 4 5 5 5 4 4 4 3 3 4 4 3 4 4 4 3 4 4 4 3 4 4 4
3 3 3 3 2 3 3 3 3 3 4 4 4 3 4 3 3 3 3 4 4 3 3 3 3 3 4 4 4 4 4 4 3 4 4 4 4 4 4 4 4 3 4
3 3 3 3 3 3 3 3 3 4 4 4 3 3 2 3 3 3 3 3 3 3 3 3 3 3 3 4 4 4 4 4 4 4 4 4 4 4 4 4 5 4 4
2 3 3 3 3 3 3 3 3 4 3 3 3 2 3 3 3 3 2 2 2 2 2 3 3 3 4 3 4 4 5 5 4 4 5 4 4 4 4 4 4 5 5
2 2 2 2 2 3 3 3 3 3 3 3 2 2 3 3 2 2 1 1 1 1 2 2 2 3 4 4 4 4 5 5 5 4 4 4 4 4 4 4 4 4 4
2 2 2 2 2 2 2 3 3 3 3 3 3 3 2 2 2 1 1 1 2 1 2 2 2 3 4 4 5 5 4 4 4 4 4 4 4 4 4 3 4 5 5
Wind_Direction
200 204 200 206 205 192 195 212 217 216 205 204 214 227 234 239 214 194 213 202 207 228 226 215 228 224 213 214 188 188 197 187 224 272 266 280 249 255 292 280 283 283 300
201 195 206 209 204 200 209 215 208 214 226 222 212 222 236 234 219 207 219 215 214 228 234 225 232 220 218 216 191 202 212 207 205 230 257 269 260 241 249 248 263 273 279
187 189 201 208 205 214 219 219 209 206 218 222 212 222 242 247 236 224 212 219 223 229 229 224 227 210 226 224 206 208 216 211 202 206 237 254 271 256 239 256 262 277 284
181 190 209 219 214 220 226 222 216 210 213 224 229 234 239 243 242 234 222 227 234 240 237 231 228 217 219 219 215 212 204 196 197 199 218 244 258 254 200 228 277 291 289
184 203 220 227 220 221 230 233 225 221 227 222 230 251 258 251 247 237 240 246 241 249 252 244 237 224 220 215 214 205 195 192 194 199 213 229 239 224 227 229 249 278 280
186 209 221 223 222 227 235 239 239 240 237 222 227 238 249 257 262 247 238 254 254 247 253 257 249 235 230 224 219 207 196 195 200 203 213 221 234 230 225 219 225 248 265
194 211 215 214 224 237 238 237 244 244 241 239 237 234 243 252 254 255 246 242 252 252 246 247 253 247 230 226 225 223 221 218 207 204 211 224 225 216 203 214 218 228 246
201 214 217 215 227 235 228 234 242 241 240 242 243 240 244 255 253 256 252 247 256 260 250 242 242 248 236 220 222 228 231 230 222 217 218 226 224 214 204 208 213 222 264
205 217 223 221 225 228 233 241 237 231 242 242 246 242 248 262 254 248 237 248 263 269 262 249 242 244 238 218 213 225 237 243 230 223 223 226 223 215 198 185 191 194 244
214 220 218 214 216 224 231 236 234 223 241 247 249 240 240 256 256 246 232 233 257 270 272 262 246 240 238 217 212 214 225 233 224 222 226 232 229 217 201 199 197 199 219
216 216 219 216 218 222 225 229 232 232 236 243 251 254 247 248 252 249 238 228 236 253 264 266 257 240 233 221 214 217 220 213 209 213 224 233 231 224 218 210 202 199 205
200 205 220 226 226 221 210 225 222 224 240 254 264 279 270 259 250 251 245 237 233 234 248 255 253 239 232 225 219 221 211 199 203 206 216 223 224 225 225 220 216 216 219
199 211 221 224 228 218 209 218 224 223 235 253 257 268 275 269 254 243 243 239 232 233 245 251 255 251 242 229 224 216 200 198 199 208 219 225 226 220 211 211 214 215 232
206 223 225 218 231 237 225 216 218 223 232 243 249 261 271 272 262 255 255 252 248 246 262 274 280 277 244 226 220 211 206 204 203 215 224 225 214 200 199 195 195 184 197
208 221 225 223 220 229 235 231 227 228 222 226 238 240 249 262 256 243 238 241 236 235 232 298 315 306 290 252 235 216 200 195 207 215 212 205 203 201 201 190 182 179 200
208 221 224 224 224 224 231 262 252 239 241 236 233 233 245 247 253 251 247 239 225 196 160 218 243 242 244 243 236 230 213 210 217 214 209 200 198 199 201 187 179 192 210
207 216 219 220 224 227 228 234 262 280 259 244 237 235 236 248 254 247 243 240 210 173 185 224 231 234 239 241 237 230 226 224 215 208 203 200 198 197 195 200 198 202 218
207 215 217 219 219 220 227 232 233 244 266 278 266 252 249 250 248 240 212 156 205 201 221 232 236 237 238 239 235 231 228 222 211 209 203 200 197 196 197 202 205 212 217
211 220 221 217 217 220 222 227 232 237 247 262 280 286 268 258 245 212 173 194 221 235 234 233 236 238 240 237 233 228 220 214 208 205 207 205 205 204 208 211 212 214 216
225 231 225 213 215 217 217 221 231 237 246 257 265 270 277 272 262 241 223 224 226 239 241 238 235 232 235 236 228 218 212 211 207 207 212 216 211 210 215 217 213 212 215
221 232 224 214 211 217 217 220 228 235 242 253 258 250 230 240 244 241 236 233 230 233 236 236 233 229 231 232 224 214 210 216 218 218 221 225 217 214 218 220 220 219 222
210 218 221 217 218 219 218 218 221 230 239 250 262 256 228 232 237 242 240 242 241 234 231 229 230 225 222 220 217 216 218 224 228 224 222 221 219 217 215 213 216 216 214
204 206 214 217 216 219 225 226 226 235 244 248 247 241 235 243 244 240 236 240 240 237 230 227 229 229 228 225 223 220 222 229 231 223 220 222 221 220 218 218 219 217 215
193 202 217 224 220 222 228 233 235 239 242 244 244 238 238 247 246 238 231 232 242 247 238 230 230 225 226 227 231 234 233 233 229 221 214 213 217 218 215 215 217 216 215
187 198 215 225 226 228 235 241 247 246 242 243 243 242 242 241 242 243 243 244 249 257 260 250 242 239 240 239 239 243 239 227 222 218 207 207 213 215 211 214 214 211 211
188 194 206 216 221 229 233 241 247 241 229 231 237 241 242 240 240 240 234 237 247 262 271 273 273 263 255 248 249 244 228 217 217 213 205 204 210 214 211 214 215 210 205
Height
1507 1507 1508 1508 1509 1509 1509 1509 1510 1510 1510 1509 1509 1510 1510 1511 1511 1511 1511 1511 1512 1512 1512 1512 1513 1513 1513 1513 1513 1514 1514 1514 1514 1514 1514 1515 1515 1516 1516 1516 1516 1516 1516
1504 1505 1506 1506 1506 1507 1507 1507 1507 1507 1507 1507 1507 1507 1507 1508 1508 1508 1508 1508 1509 1509 1509 1509 1509 1510 1510 1511 1511 1511 1511 1511 1511 1511 1511 1512 1512 1513 1513 1513 1513 1513 1513
1502 1502 1503 1503 1503 1504 1504 1505 1505 1505 1505 1505 1504 1504 1505 1505 1505 1505 1505 1505 1505 1506 1506 1506 1506 1507 1507 1507 1507 1508 1508 1508 1508 1508 1508 1509 1509 1510 1510 1510 1510 1510 1510
1499 1499 1500 1500 1501 1501 1502 1502 1502 1502 1502 1502 1502 1502 1502 1502 1502 1502 1502 1502 1503 1503 1503 1503 1503 1503 1503 1504 1504 1504 1505 1505 1505 1506 1506 1506 1506 1507 1507 1507 1507 1507 1507
1496 1496 1497 1498 1498 1499 1499 1499 1499 1499 1499 1499 1499 1500 1500 1500 1500 1500 1500 1499 1500 1500 1499 1499 1499 1499 1499 1500 1500 1501 1501 1501 1502 1502 1502 1503 1503 1504 1504 1504 1504 1504 1504
1493 1494 1494 1495 1496 1496 1496 1496 1496 1496 1496 1497 1497 1497 1497 1497 1497 1497 1497 1496 1496 1496 1496 1496 1496 1495 1495 1496 1497 1497 1498 1498 1498 1499 1499 1499 1500 1501 1501 1502 1502 1501 1500
1490 1491 1492 1492 1492 1493 1493 1493 1494 1494 1494 1493 1494 1494 1494 1494 1494 1494 1494 1494 1493 1493 1493 1492 1492 1492 1492 1492 1493 1493 1494 1494 1495 1495 1495 1496 1497 1498 1498 1498 1498 1498 1498
1487 1488 1489 1489 1489 1490 1490 1490 1490 1491 1491 1491 1491 1491 1490 1490 1490 1490 1491 1490 1490 1490 1489 1488 1488 1488 1488 1488 1489 1489 1489 1490 1491 1491 1492 1493 1494 1494 1495 1495 1495 1495 1495
1484 1485 1486 1486 1487 1487 1487 1487 1487 1488 1488 1488 1488 1487 1487 1487 1487 1487 1487 1486 1486 1486 1485 1485 1484 1484 1484 1484 1484 1484 1485 1486 1487 1488 1488 1489 1490 1491 1491 1491 1491 1492 1491
1481 1482 1482 1483 1483 1484 1484 1484 1484 1484 1484 1484 1484 1484 1483 1483 1483 1483 1483 1483 1482 1482 1481 1480 1480 1479 1479 1480 1480 1480 1480 1481 1483 1483 1484 1485 1486 1487 1487 1488 1488 1488 1488
1478 1479 1479 1480 1480 1480 1481 1481 1481 1480 1480 1480 1480 1480 1479 1479 1479 1479 1479 1478 1478 1477 1477 1476 1476 1476 1475 1475 1476 1476 1476 1478 1479 1479 1480 1481 1482 1483 1483 1484 1485 1486 1486
1475 1476 1477 1477 1477 1477 1477 1477 1477 1477 1477 1477 1476 1476 1475 1475 1475 1475 1475 1475 1474 1473 1473 1472 1472 1471 1471 1471 1471 1472 1473 1474 1475 1476 1477 1477 1478 1479 1480 1481 1482 1483 1483
1471 1472 1473 1473 1474 1473 1474 1474 1473 1474 1474 1473 1472 1472 1471 1471 1471 1471 1471 1471 1471 1470 1469 1469 1468 1467 1467 1467 1467 1468 1469 1470 1471 1472 1473 1474 1475 1476 1477 1478 1479 1479 1480
1468 1468 1469 1469 1469 1470 1470 1470 1470 1470 1470 1470 1469 1468 1468 1468 1467 1467 1467 1467 1466 1466 1466 1465 1465 1464 1463 1463 1463 1464 1465 1466 1467 1468 1469 1471 1471 1472 1473 1474 1474 1475 1476
1464 1464 1465 1465 1465 1466 1467 1467 1467 1467 1467 1467 1466 1466 1465 1464 1464 1464 1463 1463 1462 1462 1462 1461 1461 1461 1460 1460 1461 1461 1462 1463 1464 1465 1466 1467 1468 1469 1469 1470 1471 1472 1473
1460 1460 1461 1461 1462 1462 1462 1463 1463 1464 1464 1463 1463 1463 1462 1462 1461 1461 1461 1460 1460 1459 1459 1458 1458 1458 1458 1458 1458 1458 1459 1460 1461 1461 1462 1463 1464 1465 1466 1467 1468 1469 1469
1456 1456 1457 1458 1458 1458 1458 1458 1459 1460 1460 1460 1459 1459 1458 1458 1458 1458 1458 1457 1457 1457 1456 1456 1455 1455 1455 1455 1456 1456 1456 1457 1458 1458 1459 1460 1461 1462 1463 1464 1465 1466 1467
1452 1452 1453 1453 1454 1454 1455 1455 1456 1456 1456 1455 1456 1455 1455 1454 1454 1454 1454 1454 1453 1453 1453 1453 1453 1453 1453 1453 1453 1453 1454 1455 1455 1456 1457 1457 1458 1459 1460 1460 1462 1462 1463
1447 1448 1449 1449 1450 1451 1451 1452 1452 1453 1452 1452 1451 1451 1451 1451 1451 1451 1451 1450 1450 1450 1450 1450 1450 1450 1450 1450 1450 1451 1451 1451 1452 1453 1454 1454 1455 1456 1456 1457 1458 1459 1460
1444 1445 1445 1446 1447 1447 1448 1448 1449 1449 1448 1448 1448 1448 1447 1447 1447 1447 1447 1447 1447 1447 1447 1447 1447 1447 1447 1447 1447 1447 1448 1448 1449 1450 1450 1451 1452 1453 1453 1454 1454 1455 1456
1440 1441 1442 1442 1443 1444 1445 1445 1446 1446 1445 1445 1445 1445 1444 1444 1444 1443 1443 1443 1443 1444 1444 1444 1444 1443 1443 1443 1444 1444 1444 1445 1446 1446 1447 1448 1449 1449 1450 1450 1451 1452 1453
1437 1438 1439 1439 1440 1441 1442 1442 1442 1442 1442 1442 1442 1442 1441 1441 1441 1440 1440 1440 1440 1441 1441 1441 1441 1440 1440 1440 1441 1441 1442 1442 1442 1443 1444 1444 1445 1445 1446 1446 1447 1448 1449
1434 1435 1436 1437 1437 1438 1438 1438 1439 1439 1439 1439 1439 1439 1438 1438 1437 1437 1437 1437 1438 1438 1438 1438 1438 1437 1438 1438 1438 1439 1439 1439 1440 1440 1440 1441 1441 1441 1442 1442 1443 1443 1444
1432 1432 1433 1434 1434 1434 1435 1435 1436 1436 1436 1436 1436 1436 1435 1435 1434 1434 1434 1434 1435 1435 1435 1435 1435 1435 1435 1435 1436 1436 1436 1436 1436 1436 1436 1436 1437 1437 1437 1438 1439 1440 1441
1430 1430 1431 1431 1431 1432 1432 1432 1432 1433 1433 1433 1433 1433 1432 1432 1432 1431 1431 1432 1432 1432 1432 1432 1432 1432 1432 1432 1432 1433 1433 1433 1433 1433 1433 1433 1433 1433 1434 1434 1435 1436 1437
1428 1429 1429 1429 1429 1429 1430 1430 1430 1430 1430 1430 1430 1430 1430 1430 1429 1429 1429 1429 1429 1429 1430 1430 1430 1430 1430 1429 1429 1429 1430 1430 1430 1430 1430 1430 1430 1430 1430 1431 1431 1432 1434